When you browse on this site, cookies collect data to enhance your experience and personalize the content and advertising you see.
Visit our Privacy Policy to learn more. By continuing to use the site, you agree to this use of cookies and data.
  • In Switzerland
  • List of Countries
  • For 7 days
  • Water Temperature
  • Satellite Maps
  • Weather Map
  • Weather Widgets
  • user-avatar
    Login

    Hourly Weather Innsbruck

    Today, 22 May, Wednesday

    Time Temperature Precipitation Wind Pressure Humidity
    00:00 +1°C° 0.2 mm 1 mps 593 mmHg 95%
    01:00 +1°C° 0.2 mm 1 mps 593 mmHg 95%
    02:00 +1°C° 0 mm 1 mps 593 mmHg 95%
    03:00 0°C° 0 mm 1 mps 593 mmHg 95%
    04:00 0°C° 0 mm 1 mps 593 mmHg 96%
    05:00 +1°C° 0 mm 1 mps 593 mmHg 94%
    06:00 +2°C° 0 mm 1 mps 594 mmHg 93%
    07:00 +3°C° 0 mm 1 mps 594 mmHg 91%
    08:00 +4°C° 0 mm 1 mps 595 mmHg 88%
    09:00 +4°C° 0 mm 2 mps 596 mmHg 84%
    10:00 +5°C° 0 mm 2 mps 596 mmHg 80%
    11:00 +6°C° 0.2 mm 2 mps 596 mmHg 79%
    12:00 +6°C° 0.2 mm 2 mps 597 mmHg 77%
    13:00 +7°C° 0.2 mm 2 mps 597 mmHg 75%
    14:00 +7°C° 0.4 mm 2 mps 597 mmHg 77%
    15:00 +6°C° 0.4 mm 2 mps 596 mmHg 79%
    16:00 +5°C° 0.4 mm 3 mps 596 mmHg 81%
    17:00 +5°C° 0.4 mm 2 mps 596 mmHg 85%
    18:00 +4°C° 0.4 mm 2 mps 596 mmHg 89%
    19:00 +3°C° 0.4 mm 2 mps 596 mmHg 94%
    20:00 +3°C° 0.2 mm 2 mps 596 mmHg 95%
    21:00 +3°C° 0.2 mm 1 mps 596 mmHg 97%
    22:00 +3°C° 0.2 mm 1 mps 596 mmHg 98%
    23:00 +2°C° 0 mm 1 mps 596 mmHg 98%

    Tomorrow, 23 May, Thursday

    Time Temperature Precipitation Wind Pressure Humidity
    00:00 +2°C° 0 mm 1 mps 596 mmHg 97%
    01:00 +2°C° 0 mm 1 mps 596 mmHg 97%
    02:00 +1°C° 0 mm 1 mps 596 mmHg 96%
    03:00 +1°C° 0 mm 1 mps 596 mmHg 96%
    04:00 0°C° 0 mm 1 mps 595 mmHg 96%
    05:00 +1°C° 0 mm 1 mps 596 mmHg 92%
    06:00 +2°C° 0 mm 1 mps 596 mmHg 88%
    07:00 +4°C° 0 mm 1 mps 597 mmHg 84%
    08:00 +5°C° 0 mm 1 mps 597 mmHg 77%
    09:00 +7°C° 0 mm 1 mps 598 mmHg 70%
    10:00 +8°C° 0 mm 1 mps 599 mmHg 64%
    11:00 +8°C° 0 mm 2 mps 599 mmHg 61%
    12:00 +9°C° 0 mm 2 mps 599 mmHg 58%
    13:00 +10°C° 0 mm 2 mps 599 mmHg 54%
    14:00 +10°C° 0 mm 2 mps 599 mmHg 55%
    15:00 +9°C° 0 mm 2 mps 598 mmHg 55%
    16:00 +9°C° 0 mm 2 mps 598 mmHg 55%
    17:00 +8°C° 0 mm 2 mps 597 mmHg 62%
    18:00 +7°C° 0 mm 2 mps 597 mmHg 68%
    19:00 +5°C° 0 mm 2 mps 596 mmHg 75%
    20:00 +4°C° 0 mm 1 mps 596 mmHg 80%
    21:00 +3°C° 0 mm 1 mps 595 mmHg 85%
    22:00 +1°C° 0 mm 1 mps 595 mmHg 90%
    23:00 +1°C° 0 mm 1 mps 595 mmHg 89%

    Day after tomorrow, 24 May, Friday

    Time Temperature Precipitation Wind Pressure Humidity
    00:00 +1°C° 0 mm 1 mps 595 mmHg 88%
    01:00 +1°C° 0 mm 1 mps 595 mmHg 87%
    02:00 +1°C° 0 mm 1 mps 595 mmHg 85%
    03:00 0°C° 0 mm 1 mps 594 mmHg 83%
    04:00 0°C° 0 mm 1 mps 594 mmHg 81%
    05:00 +3°C° 0 mm 1 mps 595 mmHg 76%
    06:00 +5°C° 0 mm 1 mps 596 mmHg 70%
    07:00 +6°C° 0 mm 0 mps 597 mmHg 65%
    08:00 +8°C° 0 mm 1 mps 597 mmHg 60%
    09:00 +10°C° 0 mm 1 mps 598 mmHg 56%
    10:00 +11°C° 0 mm 1 mps 598 mmHg 52%
    11:00 +12°C° 0 mm 1 mps 598 mmHg 51%
    12:00 +12°C° 0 mm 1 mps 598 mmHg 51%
    13:00 +13°C° 0 mm 2 mps 598 mmHg 50%
    14:00 +13°C° 0 mm 2 mps 598 mmHg 53%
    15:00 +12°C° 0 mm 2 mps 597 mmHg 55%
    16:00 +12°C° 0 mm 2 mps 597 mmHg 58%
    17:00 +9°C° 0.2 mm 2 mps 596 mmHg 65%
    18:00 +8°C° 0.2 mm 2 mps 596 mmHg 72%
    19:00 +8°C° 0.2 mm 1 mps 595 mmHg 79%
    20:00 +6°C° 0.3 mm 1 mps 595 mmHg 84%
    21:00 +5°C° 0.3 mm 1 mps 595 mmHg 89%
    22:00 +3°C° 0.3 mm 0 mps 595 mmHg 94%
    23:00 +3°C° 0.3 mm 0 mps 595 mmHg 94%

    25 May, Saturday

    Time Temperature Precipitation Wind Pressure Humidity
    00:00 +3°C° 0.3 mm 0 mps 594 mmHg 93%
    01:00 +3°C° 0.3 mm 0 mps 594 mmHg 93%
    02:00 +2°C° 0.3 mm 0 mps 594 mmHg 93%
    03:00 +2°C° 0.3 mm 0 mps 594 mmHg 93%
    04:00 +2°C° 0.3 mm 0 mps 594 mmHg 93%
    05:00 +4°C° 0.3 mm 0 mps 595 mmHg 89%
    06:00 +5°C° 0.3 mm 0 mps 595 mmHg 85%
    07:00 +6°C° 0.3 mm 0 mps 596 mmHg 81%
    08:00 +7°C° 0.4 mm 0 mps 596 mmHg 78%
    09:00 +9°C° 0.4 mm 1 mps 597 mmHg 76%
    10:00 +10°C° 0.4 mm 1 mps 597 mmHg 73%
    11:00 +9°C° 0.8 mm 1 mps 597 mmHg 75%
    12:00 +9°C° 0.8 mm 1 mps 597 mmHg 77%
    13:00 +9°C° 0.8 mm 1 mps 597 mmHg 79%
    14:00 +9°C° 1.2 mm 1 mps 596 mmHg 81%
    15:00 +8°C° 1.2 mm 1 mps 596 mmHg 84%
    16:00 +8°C° 1.2 mm 1 mps 596 mmHg 87%
    17:00 +8°C° 0.7 mm 1 mps 596 mmHg 89%
    18:00 +7°C° 0.7 mm 1 mps 596 mmHg 91%
    19:00 +6°C° 0.7 mm 1 mps 596 mmHg 93%
    20:00 +6°C° 0.1 mm 1 mps 596 mmHg 94%
    21:00 +5°C° 0.1 mm 1 mps 596 mmHg 95%
    22:00 +4°C° 0.1 mm 1 mps 596 mmHg 96%
    23:00 +4°C° 0 mm 1 mps 595 mmHg 96%

    26 May, Sunday

    Time Temperature Precipitation Wind Pressure Humidity
    00:00 +3°C° 0 mm 1 mps 595 mmHg 95%
    01:00 +3°C° 0 mm 1 mps 595 mmHg 95%
    02:00 +3°C° 0 mm 1 mps 595 mmHg 95%
    03:00 +2°C° 0 mm 1 mps 595 mmHg 95%
    04:00 +2°C° 0 mm 1 mps 594 mmHg 95%
    05:00 +4°C° 0 mm 1 mps 595 mmHg 92%
    06:00 +5°C° 0 mm 1 mps 596 mmHg 89%
    07:00 +6°C° 0 mm 1 mps 597 mmHg 87%
    08:00 +8°C° 0 mm 1 mps 597 mmHg 79%
    09:00 +10°C° 0 mm 1 mps 598 mmHg 71%
    10:00 +11°C° 0 mm 1 mps 599 mmHg 63%
    11:00 +12°C° 0 mm 1 mps 599 mmHg 60%
    12:00 +13°C° 0 mm 1 mps 599 mmHg 56%
    13:00 +13°C° 0 mm 2 mps 599 mmHg 53%
    14:00 +13°C° 0.1 mm 2 mps 599 mmHg 54%
    15:00 +13°C° 0.1 mm 2 mps 598 mmHg 55%
    16:00 +13°C° 0.1 mm 2 mps 598 mmHg 57%
    17:00 +10°C° 0.1 mm 2 mps 598 mmHg 65%
    18:00 +9°C° 0.1 mm 2 mps 597 mmHg 73%
    19:00 +8°C° 0.1 mm 2 mps 597 mmHg 81%
    20:00 +7°C° 0.1 mm 1 mps 596 mmHg 86%
    21:00 +6°C° 0.1 mm 1 mps 596 mmHg 91%
    22:00 +4°C° 0.1 mm 0 mps 596 mmHg 96%
    23:00 +4°C° 0 mm 0 mps 596 mmHg 96%

    27 May, Monday

    Time Temperature Precipitation Wind Pressure Humidity
    00:00 +4°C° 0 mm 1 mps 595 mmHg 95%
    01:00 +4°C° 0 mm 1 mps 595 mmHg 94%
    02:00 +4°C° 0 mm 1 mps 595 mmHg 94%
    03:00 +4°C° 0 mm 1 mps 595 mmHg 93%
    04:00 +4°C° 0 mm 1 mps 595 mmHg 92%
    05:00 +6°C° 0.1 mm 1 mps 595 mmHg 87%
    06:00 +7°C° 0.1 mm 1 mps 596 mmHg 82%
    07:00 +9°C° 0.1 mm 1 mps 597 mmHg 77%
    08:00 +10°C° 0.4 mm 1 mps 597 mmHg 73%
    09:00 +11°C° 0.4 mm 1 mps 598 mmHg 68%
    10:00 +13°C° 0.4 mm 1 mps 598 mmHg 63%
    11:00 +13°C° 0.4 mm 1 mps 598 mmHg 64%
    12:00 +13°C° 0.4 mm 1 mps 598 mmHg 65%
    13:00 +13°C° 0.4 mm 1 mps 597 mmHg 66%
    14:00 +12°C° 1.1 mm 1 mps 597 mmHg 72%
    15:00 +11°C° 1.1 mm 1 mps 596 mmHg 77%
    16:00 +11°C° 1.1 mm 1 mps 596 mmHg 83%
    17:00 +10°C° 1.8 mm 1 mps 595 mmHg 87%
    18:00 +9°C° 1.8 mm 1 mps 595 mmHg 91%
    19:00 +7°C° 1.8 mm 0 mps 595 mmHg 95%
    20:00 +7°C° 1.5 mm 0 mps 595 mmHg 95%
    21:00 +7°C° 1.5 mm 1 mps 595 mmHg 96%
    22:00 +7°C° 1.5 mm 1 mps 595 mmHg 96%
    23:00 +6°C° 0.2 mm 1 mps 594 mmHg 96%
    Show more